User: anonymous   Login
Location: Prague
(50.0830°N, 14.4670°E)
Time: 21:38:26
(UTC+01:00)
Language:

Hubble Space Telescope - Orbit

View from above orbital plane
View from above orbital plane
View from above satellite
View from above satellite

Ground track
Ground track

The orbit data is extracted from the following two-line orbital elements,

1 20580U 90037B   24057.27276771  .00006900  00000-0  33899-3 0  9991
2 20580  28.4699  13.9803 0002625 254.7908 105.2393 15.16092103660282
Epoch (UTC): 26 February 2024 06:32:47
Eccentricity: 0.0002625
inclination: 28.4699°
perigee height: 516 km
apogee height: 519 km
right ascension of ascending node: 13.9803°
argument of perigee: 254.7908°
revolutions per day: 15.16092103
mean anomaly at epoch: 105.2393°
orbit number at epoch: 66028

The dashed part of the orbit path shows where the satellite is in the earth's shadow,  

DLR